When you browse on this site, cookies collect data to enhance your experience and personalize the content and advertising you see.
Visit our Privacy Policy to learn more. By continuing to use the site, you agree to this use of cookies and data.
  • In Hungary
  • List of Countries
  • For 7 days
  • Water Temperature
  • Weather Map
  • News
  • Weather Widgets
  • user-avatar
    Login

    Hourly Weather Bobovische

    Today, 26 January, Sunday

    Time Temperature Precipitation Wind Pressure Humidity
    00:00 -5°C° 0 mm 5 mps 732 mmHg 78%
    01:00 -4°C° 0 mm 4 mps 733 mmHg 80%
    02:00 -4°C° 0 mm 4 mps 733 mmHg 81%
    03:00 -4°C° 0 mm 4 mps 734 mmHg 83%
    04:00 -4°C° 0 mm 3 mps 734 mmHg 84%
    05:00 -5°C° 0 mm 3 mps 735 mmHg 85%
    06:00 -5°C° 0 mm 3 mps 735 mmHg 85%
    07:00 -5°C° 0 mm 3 mps 735 mmHg 84%
    08:00 -4°C° 0 mm 3 mps 735 mmHg 84%
    09:00 -4°C° 0 mm 3 mps 735 mmHg 80%
    10:00 -3°C° 0 mm 4 mps 734 mmHg 77%
    11:00 -3°C° 0 mm 4 mps 734 mmHg 73%
    12:00 -2°C° 0.3 mm 4 mps 734 mmHg 80%
    13:00 -2°C° 0.3 mm 5 mps 733 mmHg 87%
    14:00 -3°C° 0.3 mm 6 mps 733 mmHg 94%
    15:00 -2°C° 0.3 mm 6 mps 732 mmHg 93%
    16:00 -1°C° 0.3 mm 5 mps 732 mmHg 92%
    17:00 0°C° 0.3 mm 5 mps 732 mmHg 92%
    18:00 0°C° 0 mm 5 mps 732 mmHg 91%
    19:00 +1°C° 0 mm 5 mps 732 mmHg 91%
    20:00 +1°C° 0 mm 6 mps 732 mmHg 90%
    21:00 +1°C° 0 mm 5 mps 732 mmHg 90%
    22:00 +1°C° 0 mm 5 mps 732 mmHg 91%
    23:00 +1°C° 0 mm 5 mps 733 mmHg 91%

    Tomorrow, 27 January, Monday

    Time Temperature Precipitation Wind Pressure Humidity
    00:00 +1°C° 0.1 mm 5 mps 733 mmHg 92%
    01:00 +1°C° 0.1 mm 4 mps 733 mmHg 93%
    02:00 +1°C° 0.1 mm 4 mps 734 mmHg 94%
    03:00 0°C° 0 mm 4 mps 734 mmHg 95%
    04:00 +1°C° 0 mm 3 mps 734 mmHg 96%
    05:00 +1°C° 0 mm 3 mps 734 mmHg 96%
    06:00 +2°C° 0.1 mm 2 mps 735 mmHg 97%
    07:00 +2°C° 0.1 mm 2 mps 735 mmHg 97%
    08:00 +2°C° 0.1 mm 2 mps 735 mmHg 98%
    09:00 +2°C° 0.1 mm 2 mps 735 mmHg 98%
    10:00 +2°C° 0.1 mm 2 mps 735 mmHg 98%
    11:00 +3°C° 0.1 mm 1 mps 735 mmHg 98%
    12:00 +3°C° 0.2 mm 1 mps 735 mmHg 98%
    13:00 +3°C° 0.2 mm 1 mps 735 mmHg 98%
    14:00 +3°C° 0.2 mm 1 mps 735 mmHg 98%
    15:00 +2°C° 0.4 mm 2 mps 735 mmHg 98%
    16:00 +2°C° 0.4 mm 2 mps 735 mmHg 98%
    17:00 +2°C° 0.4 mm 2 mps 735 mmHg 98%
    18:00 +2°C° 0.3 mm 2 mps 734 mmHg 98%
    19:00 +2°C° 0.3 mm 2 mps 734 mmHg 98%
    20:00 +2°C° 0.3 mm 2 mps 734 mmHg 97%
    21:00 +1°C° 0.2 mm 2 mps 734 mmHg 97%
    22:00 +1°C° 0.2 mm 2 mps 734 mmHg 97%
    23:00 +1°C° 0.2 mm 2 mps 734 mmHg 97%

    Day after tomorrow, 28 January, Tuesday

    Time Temperature Precipitation Wind Pressure Humidity
    00:00 +1°C° 0.3 mm 2 mps 733 mmHg 98%
    01:00 +1°C° 0.3 mm 2 mps 733 mmHg 98%
    02:00 -1°C° 0.3 mm 2 mps 733 mmHg 98%
    03:00 -1°C° 0.2 mm 2 mps 733 mmHg 98%
    04:00 +1°C° 0.2 mm 1 mps 732 mmHg 98%
    05:00 +1°C° 0.2 mm 1 mps 732 mmHg 98%
    06:00 +1°C° 0.2 mm 1 mps 732 mmHg 98%
    07:00 +1°C° 0.2 mm 1 mps 732 mmHg 98%
    08:00 +1°C° 0.2 mm 1 mps 732 mmHg 98%
    09:00 +1°C° 0 mm 1 mps 732 mmHg 97%
    10:00 +1°C° 0 mm 1 mps 732 mmHg 97%
    11:00 +1°C° 0 mm 1 mps 732 mmHg 96%
    12:00 +1°C° 0 mm 1 mps 732 mmHg 96%
    13:00 +2°C° 0 mm 1 mps 732 mmHg 96%
    14:00 +2°C° 0 mm 1 mps 732 mmHg 96%
    15:00 +2°C° 0.1 mm 1 mps 732 mmHg 97%
    16:00 +1°C° 0.1 mm 1 mps 732 mmHg 97%
    17:00 -1°C° 0.1 mm 2 mps 732 mmHg 98%
    18:00 -1°C° 0 mm 2 mps 732 mmHg 97%
    19:00 -1°C° 0 mm 2 mps 732 mmHg 97%
    20:00 -2°C° 0 mm 2 mps 732 mmHg 96%
    21:00 -1°C° 0 mm 2 mps 732 mmHg 96%
    22:00 -1°C° 0 mm 2 mps 732 mmHg 96%
    23:00 -1°C° 0 mm 2 mps 732 mmHg 96%

    29 January, Wednesday

    Time Temperature Precipitation Wind Pressure Humidity
    00:00 -1°C° 0.1 mm 2 mps 731 mmHg 96%
    01:00 -1°C° 0.1 mm 2 mps 731 mmHg 95%
    02:00 -1°C° 0.1 mm 3 mps 731 mmHg 95%
    03:00 -1°C° 0 mm 3 mps 730 mmHg 94%
    04:00 -1°C° 0 mm 3 mps 730 mmHg 94%
    05:00 -1°C° 0 mm 3 mps 730 mmHg 93%
    06:00 -1°C° 0 mm 3 mps 730 mmHg 93%
    07:00 -1°C° 0 mm 3 mps 730 mmHg 92%
    08:00 -1°C° 0 mm 3 mps 730 mmHg 92%
    09:00 -2°C° 0 mm 4 mps 730 mmHg 91%
    10:00 -2°C° 0 mm 4 mps 730 mmHg 90%
    11:00 -2°C° 0 mm 4 mps 730 mmHg 89%
    12:00 -2°C° 0 mm 4 mps 729 mmHg 90%
    13:00 -2°C° 0 mm 4 mps 729 mmHg 91%
    14:00 -2°C° 0 mm 4 mps 729 mmHg 92%
    15:00 -2°C° 0 mm 4 mps 729 mmHg 92%
    16:00 -2°C° 0 mm 4 mps 729 mmHg 93%
    17:00 -2°C° 0 mm 4 mps 729 mmHg 94%
    18:00 -2°C° 0 mm 4 mps 728 mmHg 92%
    19:00 -1°C° 0 mm 4 mps 728 mmHg 91%
    20:00 -1°C° 0 mm 4 mps 728 mmHg 90%
    21:00 -1°C° 0 mm 4 mps 728 mmHg 91%
    22:00 -1°C° 0 mm 4 mps 727 mmHg 92%
    23:00 -2°C° 0 mm 4 mps 727 mmHg 93%

    30 January, Thursday

    Time Temperature Precipitation Wind Pressure Humidity
    00:00 -1°C° 0.1 mm 4 mps 727 mmHg 94%
    01:00 -1°C° 0.1 mm 4 mps 726 mmHg 95%
    02:00 -1°C° 0.1 mm 4 mps 726 mmHg 96%
    03:00 -1°C° 0.2 mm 4 mps 725 mmHg 96%
    04:00 -1°C° 0.2 mm 4 mps 725 mmHg 96%
    05:00 -1°C° 0.2 mm 4 mps 724 mmHg 97%
    06:00 -1°C° 0.1 mm 4 mps 724 mmHg 97%
    07:00 0°C° 0.1 mm 3 mps 724 mmHg 97%
    08:00 +1°C° 0.1 mm 3 mps 724 mmHg 97%
    09:00 +1°C° 0.1 mm 3 mps 724 mmHg 97%
    10:00 +1°C° 0.1 mm 3 mps 723 mmHg 97%
    11:00 +1°C° 0.1 mm 3 mps 723 mmHg 97%
    12:00 +1°C° 0.2 mm 3 mps 723 mmHg 97%
    13:00 +1°C° 0.2 mm 3 mps 723 mmHg 97%
    14:00 +1°C° 0.2 mm 2 mps 723 mmHg 97%
    15:00 +1°C° 0.4 mm 2 mps 723 mmHg 97%
    16:00 -1°C° 0.4 mm 2 mps 723 mmHg 97%
    17:00 -1°C° 0.4 mm 2 mps 723 mmHg 97%
    18:00 -1°C° 0.2 mm 2 mps 723 mmHg 97%
    19:00 0°C° 0.2 mm 1 mps 723 mmHg 96%
    20:00 0°C° 0.2 mm 1 mps 724 mmHg 96%
    21:00 0°C° 0.1 mm 1 mps 724 mmHg 97%
    22:00 0°C° 0.1 mm 1 mps 724 mmHg 97%
    23:00 0°C° 0.1 mm 1 mps 724 mmHg 97%

    31 January, Friday

    Time Temperature Precipitation Wind Pressure Humidity
    00:00 0°C° 0.1 mm 1 mps 724 mmHg 97%
    01:00 0°C° 0.1 mm 1 mps 724 mmHg 97%
    02:00 0°C° 0.1 mm 1 mps 724 mmHg 97%
    03:00 -1°C° 0.1 mm 1 mps 724 mmHg 97%
    04:00 -1°C° 0.1 mm 1 mps 725 mmHg 96%
    05:00 -2°C° 0.1 mm 0 mps 725 mmHg 96%
    06:00 -2°C° 0.1 mm 0 mps 725 mmHg 96%
    07:00 -2°C° 0.1 mm 0 mps 725 mmHg 96%
    08:00 -2°C° 0.1 mm 0 mps 726 mmHg 96%
    09:00 0°C° 0.2 mm 1 mps 726 mmHg 95%
    10:00 0°C° 0.2 mm 1 mps 726 mmHg 95%
    11:00 +1°C° 0.2 mm 1 mps 727 mmHg 94%
    12:00 +1°C° 0.2 mm 1 mps 727 mmHg 93%
    13:00 -1°C° 0.2 mm 2 mps 727 mmHg 93%
    14:00 -1°C° 0.2 mm 2 mps 728 mmHg 93%
    15:00 -1°C° 0.2 mm 2 mps 728 mmHg 94%
    16:00 -2°C° 0.2 mm 2 mps 729 mmHg 95%
    17:00 -2°C° 0.2 mm 2 mps 729 mmHg 96%
    18:00 -2°C° 0.1 mm 2 mps 730 mmHg 96%
    19:00 -2°C° 0.1 mm 2 mps 730 mmHg 96%
    20:00 -2°C° 0.1 mm 3 mps 731 mmHg 95%
    21:00 -4°C° 0.1 mm 3 mps 732 mmHg 95%
    22:00 -4°C° 0.1 mm 3 mps 732 mmHg 94%
    23:00 -4°C° 0.1 mm 3 mps 733 mmHg 94%
    Show more